TimeCDT,TemperatureF,Dew PointF,Humidity,Sea Level PressureIn,VisibilityMPH,Wind Direction,Wind SpeedMPH,Gust SpeedMPH,PrecipitationIn,Events,Conditions,WindDirDegrees,DateUTC
12:53 AM,48.0,30.0,50,30.00,10.0,North,10.4,24.2,N/A,,Clear,350,2012-10-29 05:53:00
1:53 AM,46.9,30.9,54,30.00,10.0,North,10.4,18.4,N/A,,Clear,350,2012-10-29 06:53:00
2:53 AM,46.0,32.0,58,30.00,10.0,Variable,4.6,-,N/A,,Clear,0,2012-10-29 07:53:00
3:53 AM,44.1,32.0,63,30.00,10.0,NW,8.1,17.3,N/A,,Clear,320,2012-10-29 08:53:00
4:53 AM,43.0,32.0,65,30.01,10.0,NW,5.8,18.4,N/A,,Clear,320,2012-10-29 09:53:00
5:53 AM,42.1,30.9,65,30.01,10.0,NNW,9.2,-,N/A,,Clear,330,2012-10-29 10:53:00
6:53 AM,41.0,30.9,67,30.03,10.0,NNW,8.1,-,N/A,,Clear,330,2012-10-29 11:53:00
7:53 AM,42.1,30.9,65,30.04,10.0,Variable,5.8,-,N/A,,Clear,0,2012-10-29 12:53:00
8:53 AM,44.1,32.0,63,30.05,10.0,NNW,12.7,21.9,N/A,,Clear,330,2012-10-29 13:53:00
9:53 AM,46.0,30.9,56,30.05,10.0,NNW,9.2,18.4,N/A,,Partly Cloudy,330,2012-10-29 14:53:00
10:53 AM,48.9,30.0,48,30.03,10.0,North,12.7,21.9,N/A,,Partly Cloudy,350,2012-10-29 15:53:00
11:53 AM,51.1,27.0,39,30.01,10.0,North,16.1,24.2,N/A,,Clear,350,2012-10-29 16:53:00
12:53 PM,53.1,27.0,37,29.99,10.0,NNW,10.4,21.9,N/A,,Clear,340,2012-10-29 17:53:00
1:53 PM,54.0,24.1,31,29.96,10.0,NNW,13.8,28.8,N/A,,Clear,330,2012-10-29 18:53:00
2:53 PM,55.9,21.9,27,29.95,10.0,NNW,8.1,24.2,N/A,,Clear,330,2012-10-29 19:53:00
3:53 PM,55.0,24.1,30,29.94,10.0,NW,9.2,19.6,N/A,,Clear,320,2012-10-29 20:53:00
4:53 PM,54.0,25.0,33,29.93,10.0,WNW,11.5,21.9,N/A,,Clear,290,2012-10-29 21:53:00
5:53 PM,51.1,24.1,35,29.94,10.0,NW,6.9,-,N/A,,Clear,310,2012-10-29 22:53:00
6:53 PM,50.0,23.0,35,29.94,10.0,WNW,8.1,20.7,N/A,,Clear,290,2012-10-29 23:53:00
7:53 PM,48.9,21.9,35,29.94,10.0,WNW,6.9,18.4,N/A,,Clear,290,2012-10-30 00:53:00
8:53 PM,48.0,19.9,33,29.94,10.0,WNW,8.1,21.9,N/A,,Clear,300,2012-10-30 01:53:00
10:53 PM,48.0,23.0,37,29.92,10.0,WNW,9.2,18.4,N/A,,Clear,300,2012-10-30 03:53:00
11:53 PM,46.9,25.0,42,29.90,10.0,WNW,12.7,28.8,N/A,,Clear,300,2012-10-30 04:53:00